FDX6153 EKCH-EDDK

Flight info

Callsign FDX6153
Flight time 1h 4m
Altitude 36000
Route NEXEN T503 GIMRU DCT MICOS DCT LARBU Z189 RUNER T858 KOPAG KOPAG1C
Aircraft B738/M-SDE2E3FGHIRWXY/LB1

Departure

Time 2026-05-04 18:29
Airport Copenhagen Kastrup Airport (EKCH)

Arrival

Time 2026-05-04 19:34
Airport Cologne Bonn Airport (EDDK)
Time Latitude Longitude Altitude Speed Heading
2026-05-04 17:42 55.61957 12.67121 23 ft 0 kts 79°
2026-05-04 18:08 55.61954 12.67098 28 ft 3 kts 79°
2026-05-04 18:08 55.61951 12.67066 27 ft 3 kts 79°
2026-05-04 18:08 55.61950 12.67060 27 ft 0 kts 79°
2026-05-04 18:08 55.61950 12.67058 23 ft 2 kts 81°
2026-05-04 18:09 55.61961 12.66997 27 ft 3 kts 144°
2026-05-04 18:09 55.61975 12.66983 27 ft 0 kts 171°
2026-05-04 18:15 55.61924 12.66963 28 ft 9 kts 185°
2026-05-04 18:15 55.61845 12.66984 24 ft 13 kts 169°
2026-05-04 18:16 55.61752 12.67017 25 ft 14 kts 168°
2026-05-04 18:16 55.61711 12.67030 24 ft 0 kts 174°
2026-05-04 18:16 55.61711 12.67062 27 ft 11 kts 61°
2026-05-04 18:17 55.61884 12.66844 24 ft 19 kts 261°
2026-05-04 18:17 55.61860 12.66614 24 ft 18 kts 258°
2026-05-04 18:17 55.61702 12.66351 25 ft 17 kts 213°
2026-05-04 18:18 55.61645 12.66184 25 ft 15 kts 257°
2026-05-04 18:18 55.61651 12.66009 25 ft 14 kts 287°
2026-05-04 18:18 55.61691 12.65869 27 ft 10 kts 302°
2026-05-04 18:18 55.61715 12.65808 28 ft 0 kts 305°
2026-05-04 18:20 55.61725 12.65783 27 ft 11 kts 304°
2026-05-04 18:20 55.61794 12.65598 24 ft 20 kts 303°
2026-05-04 18:20 55.61867 12.65398 22 ft 19 kts 304°
2026-05-04 18:21 55.61926 12.65242 23 ft 13 kts 303°
2026-05-04 18:21 55.61967 12.65132 23 ft 10 kts 305°
2026-05-04 18:21 55.61978 12.65105 22 ft 0 kts 305°
2026-05-04 18:22 55.62010 12.65021 27 ft 14 kts 302°
2026-05-04 18:22 55.62055 12.64887 26 ft 12 kts 300°
2026-05-04 18:22 55.62082 12.64817 27 ft 0 kts 312°
2026-05-04 18:25 55.62087 12.64807 25 ft 5 kts 311°
2026-05-04 18:25 55.62113 12.64702 26 ft 12 kts 269°
2026-05-04 18:26 55.62031 12.64566 24 ft 13 kts 213°
2026-05-04 18:26 55.61984 12.64502 27 ft 13 kts 227°
2026-05-04 18:26 55.61951 12.64358 25 ft 13 kts 258°
2026-05-04 18:26 55.61935 12.64204 25 ft 13 kts 257°
2026-05-04 18:27 55.61883 12.64088 26 ft 13 kts 204°
2026-05-04 18:27 55.61808 12.64076 27 ft 9 kts 179°
2026-05-04 18:27 55.61733 12.64084 25 ft 12 kts 176°
2026-05-04 18:27 55.61654 12.64087 26 ft 10 kts 191°
2026-05-04 18:28 55.61600 12.64029 28 ft 9 kts 220°
2026-05-04 18:28 55.61562 12.63976 28 ft 7 kts 214°
2026-05-04 18:28 55.61519 12.63928 25 ft 7 kts 226°
2026-05-04 18:28 55.61424 12.63761 24 ft 35 kts 222°
2026-05-04 18:29 55.61076 12.63219 26 ft 99 kts 221°
2026-05-04 18:29 55.60404 12.62167 29 ft 156 kts 223°
2026-05-04 18:29 55.59557 12.60858 647 ft 161 kts 225°
2026-05-04 18:29 55.58696 12.59498 1405 ft 178 kts 225°
2026-05-04 18:30 55.56628 12.56246 2593 ft 214 kts 222°
2026-05-04 18:30 55.55335 12.54582 3065 ft 242 kts 216°
2026-05-04 18:30 55.53883 12.52944 3873 ft 257 kts 215°
2026-05-04 18:31 55.52380 12.51235 4776 ft 264 kts 216°
2026-05-04 18:31 55.50846 12.49398 5746 ft 267 kts 218°
2026-05-04 18:31 55.49307 12.47480 6713 ft 269 kts 219°
2026-05-04 18:31 55.47769 12.45550 7626 ft 274 kts 218°
2026-05-04 18:32 55.46195 12.43608 8554 ft 279 kts 218°
2026-05-04 18:32 55.44601 12.41682 9601 ft 280 kts 218°
2026-05-04 18:32 55.42955 12.39707 10279 ft 291 kts 218°
2026-05-04 18:32 55.41251 12.37647 10728 ft 309 kts 218°
2026-05-04 18:33 55.39442 12.35419 11252 ft 323 kts 218°
2026-05-04 18:33 55.37581 12.33135 12016 ft 328 kts 218°
2026-05-04 18:33 55.35688 12.30835 12845 ft 332 kts 218°
2026-05-04 18:33 55.33777 12.28523 13685 ft 335 kts 218°
2026-05-04 18:34 55.31842 12.26186 14443 ft 338 kts 218°
2026-05-04 18:34 55.29889 12.23825 15177 ft 342 kts 218°
2026-05-04 18:34 55.27921 12.21443 15915 ft 346 kts 218°
2026-05-04 18:34 55.25931 12.19039 16637 ft 349 kts 218°
2026-05-04 18:35 55.23941 12.16641 17335 ft 353 kts 218°
2026-05-04 18:35 55.21898 12.14181 18059 ft 357 kts 218°
2026-05-04 18:35 55.19842 12.11705 18686 ft 360 kts 218°
2026-05-04 18:35 55.17792 12.09140 19298 ft 363 kts 220°
2026-05-04 18:36 55.15777 12.06517 19899 ft 366 kts 220°
2026-05-04 18:36 55.13733 12.03838 20505 ft 369 kts 220°
2026-05-04 18:36 55.11658 12.01156 21100 ft 372 kts 220°
2026-05-04 18:36 55.09561 11.98492 21710 ft 374 kts 219°
2026-05-04 18:37 55.07446 11.95818 22301 ft 377 kts 219°
2026-05-04 18:37 55.05318 11.93123 22875 ft 379 kts 220°
2026-05-04 18:37 55.03174 11.90396 23447 ft 382 kts 220°
2026-05-04 18:37 55.01016 11.87650 23921 ft 384 kts 220°
2026-05-04 18:38 54.98852 11.84903 24414 ft 385 kts 220°
2026-05-04 18:38 54.96680 11.82156 24907 ft 386 kts 220°
2026-05-04 18:38 54.94504 11.79409 25389 ft 387 kts 220°
2026-05-04 18:38 54.92315 11.76648 25871 ft 387 kts 220°
2026-05-04 18:39 54.90133 11.73898 26342 ft 388 kts 221°
2026-05-04 18:39 54.87944 11.71142 26798 ft 388 kts 221°
2026-05-04 18:39 54.85787 11.68431 27253 ft 388 kts 221°
2026-05-04 18:39 54.83597 11.65684 27675 ft 389 kts 221°
2026-05-04 18:40 54.81404 11.62936 28089 ft 389 kts 221°
2026-05-04 18:40 54.79203 11.60177 28481 ft 390 kts 221°
2026-05-04 18:40 54.76996 11.57416 28869 ft 391 kts 221°
2026-05-04 18:40 54.74784 11.54655 29242 ft 391 kts 221°
2026-05-04 18:41 54.72572 11.51898 29589 ft 392 kts 221°
2026-05-04 18:41 54.70355 11.49139 29954 ft 393 kts 221°
2026-05-04 18:41 54.68132 11.46376 30242 ft 394 kts 221°
2026-05-04 18:41 54.65922 11.43632 30483 ft 396 kts 221°
2026-05-04 18:42 54.63675 11.40845 30715 ft 398 kts 221°
2026-05-04 18:42 54.61424 11.38059 30999 ft 398 kts 221°
2026-05-04 18:42 54.59169 11.35275 31283 ft 399 kts 221°
2026-05-04 18:42 54.56906 11.32482 31561 ft 400 kts 221°
2026-05-04 18:43 54.54636 11.29684 31820 ft 401 kts 220°
2026-05-04 18:43 54.52353 11.26895 32092 ft 402 kts 220°
2026-05-04 18:43 54.50091 11.24149 32360 ft 403 kts 220°
2026-05-04 18:43 54.47797 11.21371 32627 ft 404 kts 220°
2026-05-04 18:44 54.45501 11.18586 32903 ft 404 kts 220°
2026-05-04 18:44 54.43946 11.16699 33088 ft 405 kts 220°
2026-05-04 18:44 54.40888 11.12990 33453 ft 406 kts 220°
2026-05-04 18:44 54.38586 11.10204 33731 ft 406 kts 220°
2026-05-04 18:45 54.36267 11.07407 34007 ft 407 kts 220°
2026-05-04 18:45 54.33945 11.04610 34230 ft 407 kts 220°
2026-05-04 18:45 54.31623 11.01817 34449 ft 408 kts 219°
2026-05-04 18:45 54.29159 10.99430 34674 ft 415 kts 211°
2026-05-04 18:46 54.26542 10.97312 34881 ft 416 kts 210°
2026-05-04 18:46 54.23916 10.95221 35105 ft 417 kts 210°
2026-05-04 18:46 54.21271 10.93138 35327 ft 417 kts 210°
2026-05-04 18:46 54.18631 10.91061 35541 ft 418 kts 210°
2026-05-04 18:47 54.15990 10.88974 35752 ft 419 kts 210°
2026-05-04 18:47 54.13341 10.86875 35966 ft 420 kts 209°
2026-05-04 18:47 54.10676 10.84763 35972 ft 423 kts 209°
2026-05-04 18:48 54.05303 10.80532 35980 ft 427 kts 209°
2026-05-04 18:48 53.99930 10.76322 35979 ft 426 kts 209°
2026-05-04 18:49 53.94565 10.72122 35975 ft 421 kts 209°
2026-05-04 18:49 53.89252 10.67970 35977 ft 420 kts 209°
2026-05-04 18:50 53.83935 10.63830 35977 ft 420 kts 209°
2026-05-04 18:50 53.78664 10.59738 35977 ft 420 kts 209°
2026-05-04 18:51 53.73344 10.55619 35974 ft 420 kts 209°
2026-05-04 18:51 53.68930 10.52210 35976 ft 419 kts 209°
2026-05-04 18:52 53.64224 10.48585 35971 ft 419 kts 209°
2026-05-04 18:52 53.58947 10.44530 35973 ft 419 kts 208°
2026-05-04 18:53 53.53638 10.40461 35975 ft 418 kts 208°
2026-05-04 18:53 53.48329 10.36405 35973 ft 418 kts 208°
2026-05-04 18:54 53.43032 10.32369 35980 ft 418 kts 208°
2026-05-04 18:54 53.37739 10.28346 35962 ft 417 kts 208°
2026-05-04 18:55 53.32488 10.24367 35973 ft 416 kts 208°
2026-05-04 18:55 53.24583 10.18396 35966 ft 415 kts 208°
2026-05-04 18:56 53.19321 10.14435 35966 ft 414 kts 208°
2026-05-04 18:56 53.14057 10.10483 35974 ft 414 kts 208°
2026-05-04 18:57 53.08807 10.06552 35973 ft 413 kts 208°
2026-05-04 18:57 53.03600 10.02664 35976 ft 412 kts 208°
2026-05-04 18:58 52.98365 9.98765 35975 ft 412 kts 208°
2026-05-04 18:58 52.93156 9.94896 35979 ft 412 kts 208°
2026-05-04 18:59 52.87924 9.91020 35974 ft 412 kts 207°
2026-05-04 18:59 52.82691 9.87154 35972 ft 412 kts 207°
2026-05-04 19:00 52.77449 9.83291 35973 ft 411 kts 207°
2026-05-04 19:00 52.72213 9.79443 35976 ft 412 kts 207°
2026-05-04 19:01 52.67006 9.75627 35973 ft 412 kts 207°
2026-05-04 19:01 52.61757 9.71789 35970 ft 412 kts 207°
2026-05-04 19:02 52.56506 9.67961 35977 ft 412 kts 207°
2026-05-04 19:02 52.51284 9.64163 35979 ft 412 kts 207°
2026-05-04 19:03 52.46030 9.60351 35789 ft 415 kts 207°
2026-05-04 19:03 52.43399 9.58447 35532 ft 410 kts 207°
2026-05-04 19:03 52.40799 9.56572 35277 ft 403 kts 207°
2026-05-04 19:04 52.38277 9.54753 35034 ft 400 kts 207°
2026-05-04 19:04 52.35741 9.52924 34727 ft 395 kts 207°
2026-05-04 19:04 52.33241 9.51122 34403 ft 389 kts 207°
2026-05-04 19:04 52.30781 9.49352 34087 ft 384 kts 207°
2026-05-04 19:05 52.28353 9.47608 33738 ft 379 kts 207°
2026-05-04 19:05 52.25950 9.45883 33367 ft 374 kts 207°
2026-05-04 19:05 52.23569 9.44175 33023 ft 375 kts 207°
2026-05-04 19:05 52.21149 9.42436 32682 ft 385 kts 207°
2026-05-04 19:06 52.18686 9.40671 32372 ft 387 kts 207°
2026-05-04 19:06 52.16224 9.38915 32099 ft 395 kts 207°
2026-05-04 19:06 52.13674 9.37096 31858 ft 403 kts 207°
2026-05-04 19:06 52.11092 9.35260 31592 ft 403 kts 207°
2026-05-04 19:07 52.08532 9.33443 31311 ft 400 kts 207°
2026-05-04 19:07 52.05973 9.31626 31021 ft 400 kts 207°
2026-05-04 19:07 52.03442 9.29828 30756 ft 401 kts 207°
2026-05-04 19:07 52.00878 9.28008 30477 ft 401 kts 207°
2026-05-04 19:08 51.98311 9.26190 30217 ft 402 kts 207°
2026-05-04 19:08 51.95735 9.24370 29942 ft 404 kts 207°
2026-05-04 19:08 51.93151 9.22546 29624 ft 405 kts 207°
2026-05-04 19:08 51.90609 9.20693 29321 ft 404 kts 211°
2026-05-04 19:09 51.88267 9.18217 29023 ft 402 kts 221°
2026-05-04 19:09 51.86272 9.15054 28738 ft 401 kts 229°
2026-05-04 19:09 51.84428 9.11662 28441 ft 403 kts 230°
2026-05-04 19:09 51.82593 9.08229 28161 ft 402 kts 230°
2026-05-04 19:10 51.81362 9.05914 27955 ft 402 kts 230°
2026-05-04 19:10 51.79555 9.02532 27659 ft 402 kts 230°
2026-05-04 19:10 51.77711 8.99108 27388 ft 404 kts 229°
2026-05-04 19:10 51.75859 8.95691 27105 ft 405 kts 229°
2026-05-04 19:11 51.73995 8.92255 26820 ft 407 kts 229°
2026-05-04 19:11 51.72128 8.88810 26549 ft 409 kts 229°
2026-05-04 19:11 51.70253 8.85348 26283 ft 411 kts 229°
2026-05-04 19:11 51.68366 8.81867 26012 ft 412 kts 229°
2026-05-04 19:12 51.66473 8.78385 25745 ft 414 kts 229°
2026-05-04 19:12 51.62682 8.71441 25222 ft 417 kts 228°
2026-05-04 19:12 51.60511 8.68337 25031 ft 420 kts 216°
2026-05-04 19:13 51.57997 8.65878 25017 ft 426 kts 211°
2026-05-04 19:13 51.55410 8.63503 25017 ft 429 kts 211°
2026-05-04 19:13 51.52796 8.61161 25017 ft 431 kts 210°
2026-05-04 19:13 51.50164 8.58830 25011 ft 433 kts 210°
2026-05-04 19:14 51.47523 8.56485 25012 ft 433 kts 211°
2026-05-04 19:14 51.44902 8.54140 25000 ft 428 kts 211°
2026-05-04 19:14 51.42309 8.51810 25000 ft 427 kts 211°
2026-05-04 19:14 51.39741 8.49508 24970 ft 424 kts 211°
2026-05-04 19:15 51.37179 8.47223 24376 ft 420 kts 210°
2026-05-04 19:15 51.34629 8.44959 24016 ft 413 kts 210°
2026-05-04 19:15 51.32164 8.42774 24005 ft 405 kts 210°
2026-05-04 19:15 51.29709 8.40459 24004 ft 411 kts 216°
2026-05-04 19:16 51.27542 8.37451 23998 ft 416 kts 227°
2026-05-04 19:16 51.25824 8.33767 24005 ft 420 kts 239°
2026-05-04 19:16 51.24333 8.29733 24003 ft 423 kts 239°
2026-05-04 19:16 51.22871 8.25682 24007 ft 418 kts 240°
2026-05-04 19:17 51.21431 8.21663 24006 ft 417 kts 240°
2026-05-04 19:17 51.19979 8.17650 24001 ft 416 kts 239°
2026-05-04 19:17 51.18534 8.13699 23526 ft 412 kts 239°
2026-05-04 19:17 51.17086 8.09769 22894 ft 409 kts 239°
2026-05-04 19:18 51.15669 8.05916 22287 ft 406 kts 239°
2026-05-04 19:18 51.14247 8.02048 21713 ft 403 kts 239°
2026-05-04 19:18 51.12835 7.98201 21148 ft 400 kts 239°
2026-05-04 19:18 51.11436 7.94393 20595 ft 397 kts 238°
2026-05-04 19:19 51.10043 7.90615 20053 ft 394 kts 238°
2026-05-04 19:19 51.08654 7.86861 19525 ft 392 kts 238°
2026-05-04 19:19 51.07281 7.83136 19012 ft 389 kts 239°
2026-05-04 19:19 51.06263 7.79196 18485 ft 390 kts 252°
2026-05-04 19:20 51.05649 7.75053 18358 ft 378 kts 255°
2026-05-04 19:20 51.05086 7.71058 18238 ft 365 kts 255°
2026-05-04 19:20 51.04543 7.67140 17882 ft 360 kts 255°
2026-05-04 19:20 51.04006 7.63278 17503 ft 355 kts 255°
2026-05-04 19:21 51.03402 7.59498 17113 ft 349 kts 246°
2026-05-04 19:21 51.02221 7.56200 16775 ft 341 kts 234°
2026-05-04 19:21 51.00879 7.53119 16416 ft 337 kts 233°
2026-05-04 19:21 50.99533 7.50067 16046 ft 335 kts 233°
2026-05-04 19:22 50.98211 7.47079 15709 ft 332 kts 233°
2026-05-04 19:22 50.96894 7.44098 15360 ft 328 kts 233°
2026-05-04 19:22 50.95595 7.41161 15017 ft 323 kts 233°
2026-05-04 19:22 50.94313 7.38259 14676 ft 318 kts 233°
2026-05-04 19:23 50.93049 7.35399 14349 ft 314 kts 233°
2026-05-04 19:23 50.91806 7.32584 14019 ft 309 kts 233°
2026-05-04 19:23 50.90579 7.29803 13685 ft 308 kts 233°
2026-05-04 19:23 50.89336 7.26989 13177 ft 315 kts 233°
2026-05-04 19:24 50.88061 7.24100 12499 ft 326 kts 233°
2026-05-04 19:24 50.86753 7.21134 11814 ft 330 kts 233°
2026-05-04 19:24 50.85438 7.18141 11157 ft 332 kts 233°
2026-05-04 19:24 50.84120 7.15128 10502 ft 334 kts 233°
2026-05-04 19:25 50.82815 7.12135 9858 ft 334 kts 233°
2026-05-04 19:25 50.81458 7.09141 9145 ft 333 kts 226°
2026-05-04 19:25 50.79630 7.06948 8438 ft 331 kts 205°
2026-05-04 19:25 50.77414 7.06038 7753 ft 330 kts 184°
2026-05-04 19:26 50.75141 7.06548 7074 ft 333 kts 162°
2026-05-04 19:26 50.73146 7.08410 6418 ft 337 kts 140°
2026-05-04 19:26 50.71559 7.11114 5878 ft 332 kts 134°
2026-05-04 19:26 50.70067 7.13845 5366 ft 325 kts 133°
2026-05-04 19:27 50.68602 7.16521 4865 ft 318 kts 133°
2026-05-04 19:27 50.67185 7.19097 4361 ft 312 kts 133°
2026-05-04 19:27 50.65771 7.21645 3985 ft 304 kts 133°
2026-05-04 19:27 50.64435 7.24177 3613 ft 299 kts 124°
2026-05-04 19:28 50.63749 7.27204 3269 ft 290 kts 98°
2026-05-04 19:28 50.63981 7.30255 3104 ft 276 kts 71°
2026-05-04 19:28 50.64938 7.32799 3032 ft 263 kts 55°
2026-05-04 19:28 50.66005 7.35006 3016 ft 244 kts 51°
2026-05-04 19:29 50.67354 7.36445 2980 ft 231 kts 18°
2026-05-04 19:29 50.68892 7.36647 3005 ft 216 kts 357°
2026-05-04 19:29 50.70363 7.36463 3004 ft 208 kts 354°
2026-05-04 19:29 50.71743 7.36063 3015 ft 200 kts 335°
2026-05-04 19:30 50.72859 7.34870 3040 ft 190 kts 314°
2026-05-04 19:30 50.73832 7.33470 3038 ft 187 kts 316°
2026-05-04 19:30 50.74790 7.32091 3051 ft 185 kts 315°
2026-05-04 19:30 50.75743 7.30717 2971 ft 188 kts 315°
2026-05-04 19:31 50.76701 7.29333 2724 ft 184 kts 315°
2026-05-04 19:31 50.77631 7.27991 2467 ft 179 kts 316°
2026-05-04 19:31 50.78543 7.26674 2224 ft 175 kts 316°
2026-05-04 19:31 50.79430 7.25392 1998 ft 172 kts 316°
2026-05-04 19:32 50.80307 7.24124 1765 ft 169 kts 317°
2026-05-04 19:32 50.81167 7.22880 1528 ft 166 kts 317°
2026-05-04 19:32 50.82002 7.21672 1306 ft 159 kts 317°
2026-05-04 19:32 50.82805 7.20506 1089 ft 155 kts 317°
2026-05-04 19:33 50.83600 7.19368 857 ft 151 kts 319°
2026-05-04 19:33 50.84377 7.18243 679 ft 150 kts 317°
2026-05-04 19:33 50.85148 7.17098 504 ft 154 kts 320°
2026-05-04 19:33 50.85936 7.15962 300 ft 148 kts 318°
2026-05-04 19:34 50.86515 7.15135 278 ft 80 kts 316°
2026-05-04 19:34 50.86778 7.14742 266 ft 35 kts 310°
2026-05-04 19:34 50.86877 7.14441 259 ft 27 kts 282°
2026-05-04 19:34 50.86897 7.14227 255 ft 20 kts 279°
2026-05-04 19:35 50.86916 7.14102 254 ft 8 kts 286°
2026-05-04 19:35 50.86928 7.13976 250 ft 15 kts 282°
2026-05-04 19:35 50.86995 7.13811 243 ft 20 kts 315°
2026-05-04 19:35 50.87091 7.13677 239 ft 12 kts 316°
2026-05-04 19:36 50.87162 7.13573 237 ft 16 kts 317°
2026-05-04 19:36 50.87250 7.13445 235 ft 19 kts 317°
2026-05-04 19:36 50.87351 7.13298 232 ft 20 kts 316°
2026-05-04 19:36 50.87454 7.13151 234 ft 20 kts 319°
2026-05-04 19:37 50.87555 7.13004 235 ft 20 kts 317°
2026-05-04 19:37 50.87634 7.12892 232 ft 9 kts 317°
2026-05-04 19:37 50.87622 7.12807 233 ft 9 kts 234°
2026-05-04 19:37 50.87596 7.12759 235 ft 0 kts 228°
2026-05-04 19:38 50.87590 7.12748 234 ft 3 kts 228°
2026-05-04 19:38 50.87589 7.12747 234 ft 0 kts 228°